This is the latest recevied weather packets stored in our database for station/object KE1THD. If no packets are shown the sender has not sent any weather packets the latest 1 day(s).
| Time | Temp. | Humidity | Pressure | Rain* | Wind** | Luminosity | Snow |
|---|---|---|---|---|---|---|---|
| 1777993565 | 11.67° C | 42% | 1010.2 hPa | 0 mm | 2.68 m/s, 339° | 329 W/m² | - |
| 1777993262 | 11.11° C | 42% | 1010.4 hPa | 0 mm | 2.24 m/s, 12° | 422 W/m² | - |
| 1777992958 | 11.11° C | 43% | 1010.2 hPa | 0 mm | 2.68 m/s, 308° | 254 W/m² | - |
| 1777992656 | 11.11° C | 42% | 1010 hPa | 0 mm | 3.58 m/s, 328° | 236 W/m² | - |
| 1777992354 | 11.67° C | 43% | 1009.9 hPa | 0 mm | 3.13 m/s, 9° | 257 W/m² | - |
| 1777992051 | 11.11° C | 42% | 1010 hPa | 0 mm | 2.24 m/s, 23° | 363 W/m² | - |
| 1777991749 | 11.67° C | 42% | 1010 hPa | 0 mm | 4.02 m/s, 3° | 406 W/m² | - |
| 1777991445 | 11.67° C | 42% | 1009.9 hPa | 0 mm | 2.68 m/s, 17° | 596 W/m² | - |
| 1777991143 | 11.67° C | 43% | 1009.9 hPa | 0 mm | 4.02 m/s, 351° | 574 W/m² | - |
| 1777990840 | 11.11° C | 41% | 1009.7 hPa | 0 mm | 3.13 m/s, 31° | 503 W/m² | - |
| 1777990537 | 11.11° C | 40% | 1009.9 hPa | 0 mm | 2.68 m/s, 345° | 478 W/m² | - |
| 1777990234 | 11.11° C | 44% | 1009.4 hPa | 0 mm | 1.79 m/s, 32° | 548 W/m² | - |
| 1777989931 | 11.11° C | 46% | 1009.8 hPa | 0 mm | 3.13 m/s, 347° | 380 W/m² | - |
| 1777989628 | 10.56° C | 46% | 1009.7 hPa | 0 mm | 1.79 m/s, 357° | 476 W/m² | - |
| 1777989324 | 10.56° C | 46% | 1009.7 hPa | 0 mm | 3.13 m/s, 16° | 224 W/m² | - |
| 1777989020 | 10.56° C | 48% | 1009.7 hPa | 0 mm | 1.79 m/s, 45° | 291 W/m² | - |
| 1777988716 | 10.56° C | 48% | 1009.9 hPa | 0 mm | 2.24 m/s, 263° | 273 W/m² | - |
| 1777988414 | 10.56° C | 50% | 1009.9 hPa | 0 mm | 1.34 m/s, 252° | 329 W/m² | - |
| 1777988111 | 10° C | 51% | 1010.2 hPa | 0 mm | 2.24 m/s, 290° | 278 W/m² | - |
| 1777987806 | 10° C | 49% | 1010 hPa | 0 mm | 2.68 m/s, 353° | 208 W/m² | - |
| 1777987503 | 10° C | 53% | 1010.2 hPa | 0 mm | 1.34 m/s, 277° | 111 W/m² | - |
| 1777987201 | 10° C | 51% | 1010.3 hPa | 0 mm | 4.02 m/s, 15° | 143 W/m² | - |
| 1777986897 | 10° C | 50% | 1010.7 hPa | 0 mm | 4.02 m/s, 349° | 313 W/m² | - |
| 1777986595 | 10° C | 52% | 1010.3 hPa | 0 mm | 2.24 m/s, 358° | 254 W/m² | - |
| 1777986293 | 10° C | 53% | 1010.3 hPa | 0 mm | 2.24 m/s, 357° | 157 W/m² | - |
* Rain latest hour (hover to see other rain measurements)
** Current wind speed in m/s (hover to see current wind gust speed)